Time,TemperatureF,DewpointF,PressureIn,WindDirection,WindDirectionDegrees,WindSpeedMPH,WindSpeedGustMPH,Humidity,HourlyPrecipIn,Conditions,Clouds,dailyrainin,SoftwareType,DateUTC
2013-11-27 00:00:00,33.2,31.0,29.89,NNW,342,4.0,-999.0,93,-99.99,,,0.56,weatherlink.com 1.10,2013-11-27 05:00:00,
2013-11-27 00:15:00,33.0,31.0,29.89,NW,317,2.0,-999.0,93,-99.99,,,0.00,weatherlink.com 1.10,2013-11-27 05:15:00,
2013-11-27 00:30:00,32.9,31.0,29.89,NNW,336,4.0,-999.0,93,-99.99,,,0.00,weatherlink.com 1.10,2013-11-27 05:30:00,
2013-11-27 00:45:00,33.0,31.0,29.89,NW,324,0.0,-999.0,93,-99.99,,,0.00,weatherlink.com 1.10,2013-11-27 05:45:00,
2013-11-27 01:00:00,33.0,31.0,29.90,NW,321,2.0,-999.0,93,-99.99,,,0.00,weatherlink.com 1.10,2013-11-27 06:00:00,
2013-11-27 01:15:00,33.0,31.0,29.89,NW,321,0.0,-999.0,93,-99.99,,,0.00,weatherlink.com 1.10,2013-11-27 06:15:00,
2013-11-27 01:30:00,33.0,31.0,29.90,NW,322,1.0,-999.0,92,-99.99,,,0.00,weatherlink.com 1.10,2013-11-27 06:30:00,
2013-11-27 01:45:00,33.0,31.0,29.90,NW,316,4.0,-999.0,92,-99.99,,,0.00,weatherlink.com 1.10,2013-11-27 06:45:00,
2013-11-27 02:00:00,33.0,31.0,29.90,NW,316,5.0,-999.0,92,-99.99,,,0.00,weatherlink.com 1.10,2013-11-27 07:00:00,
2013-11-27 02:15:00,33.1,31.0,29.90,NNW,329,3.0,-999.0,91,-99.99,,,0.00,weatherlink.com 1.10,2013-11-27 07:15:00,
2013-11-27 02:30:00,33.0,31.0,29.90,NW,325,2.0,-999.0,91,-99.99,,,0.00,weatherlink.com 1.10,2013-11-27 07:30:00,
2013-11-27 02:45:00,33.0,31.0,29.89,NW,319,1.0,-999.0,91,-99.99,,,0.00,weatherlink.com 1.10,2013-11-27 07:45:00,
2013-11-27 03:00:00,33.0,31.0,29.90,NNW,333,4.0,-999.0,91,-99.99,,,0.00,weatherlink.com 1.10,2013-11-27 08:00:00,
2013-11-27 03:15:00,32.9,30.0,29.90,NW,319,4.0,-999.0,90,-99.99,,,0.00,weatherlink.com 1.10,2013-11-27 08:15:00,
2013-11-27 03:30:00,32.9,30.0,29.90,NNW,332,6.0,-999.0,90,-99.99,,,0.00,weatherlink.com 1.10,2013-11-27 08:30:00,
2013-11-27 03:46:00,32.9,30.0,29.90,NW,319,6.0,-999.0,90,-99.99,,,0.00,weatherlink.com 1.10,2013-11-27 08:46:00,
2013-11-27 04:01:00,33.0,30.0,29.91,WNW,294,5.0,-999.0,90,-99.99,,,0.00,weatherlink.com 1.10,2013-11-27 09:01:00,
2013-11-27 04:16:00,33.0,30.0,29.91,NNW,330,4.0,-999.0,90,-99.99,,,0.00,weatherlink.com 1.10,2013-11-27 09:16:00,
2013-11-27 04:31:00,33.0,30.0,29.91,NW,321,0.0,-999.0,90,-99.99,,,0.00,weatherlink.com 1.10,2013-11-27 09:31:00,
2013-11-27 04:46:00,33.0,30.0,29.91,NW,321,1.0,-999.0,90,-99.99,,,0.00,weatherlink.com 1.10,2013-11-27 09:46:00,
2013-11-27 05:01:00,33.0,30.0,29.91,NW,321,2.0,-999.0,90,-99.99,,,0.00,weatherlink.com 1.10,2013-11-27 10:01:00,
2013-11-27 05:16:00,33.1,31.0,29.92,NW,319,1.0,-999.0,90,-99.99,,,0.00,weatherlink.com 1.10,2013-11-27 10:16:00,
2013-11-27 05:31:00,33.1,31.0,29.92,NW,325,3.0,-999.0,90,-99.99,,,0.00,weatherlink.com 1.10,2013-11-27 10:31:00,
2013-11-27 05:46:00,33.2,31.0,29.93,NW,320,3.0,-999.0,90,-99.99,,,0.00,weatherlink.com 1.10,2013-11-27 10:46:00,
2013-11-27 06:01:00,33.1,31.0,29.93,NW,319,6.0,-999.0,90,-99.99,,,0.00,weatherlink.com 1.10,2013-11-27 11:01:00,
2013-11-27 06:16:00,33.1,31.0,29.93,NNW,329,2.0,-999.0,90,-99.99,,,0.00,weatherlink.com 1.10,2013-11-27 11:16:00,
2013-11-27 06:31:00,33.0,30.0,29.94,NW,311,6.0,-999.0,90,-99.99,,,0.00,weatherlink.com 1.10,2013-11-27 11:31:00,
2013-11-27 06:46:00,32.6,29.0,29.95,NNW,331,5.0,-999.0,87,-99.99,,,0.00,weatherlink.com 1.10,2013-11-27 11:46:00,
2013-11-27 07:01:00,32.3,28.0,29.95,NNW,329,0.0,-999.0,85,-99.99,,,0.00,weatherlink.com 1.10,2013-11-27 12:01:00,
2013-11-27 07:16:00,32.0,28.0,29.96,NNW,333,5.0,-999.0,85,-99.99,,,0.00,weatherlink.com 1.10,2013-11-27 12:16:00,
2013-11-27 07:31:00,31.7,28.0,29.97,NNW,338,12.0,-999.0,85,-99.99,,,0.00,weatherlink.com 1.10,2013-11-27 12:31:00,
2013-11-27 07:46:00,31.4,27.0,29.98,NNW,335,4.0,-999.0,83,-99.99,,,0.00,weatherlink.com 1.10,2013-11-27 12:46:00,
2013-11-27 08:01:00,31.1,26.0,29.98,NW,325,4.0,-999.0,82,-99.99,,,0.00,weatherlink.com 1.10,2013-11-27 13:01:00,
2013-11-27 08:16:00,30.9,26.0,29.99,North,360,4.0,-999.0,82,-99.99,,,0.00,weatherlink.com 1.10,2013-11-27 13:16:00,
2013-11-27 08:31:00,30.6,25.0,30.00,NNW,332,3.0,-999.0,79,-99.99,,,0.00,weatherlink.com 1.10,2013-11-27 13:31:00,
2013-11-27 08:46:00,30.5,25.0,30.00,NNW,336,6.0,-999.0,79,-99.99,,,0.00,weatherlink.com 1.10,2013-11-27 13:46:00,
2013-11-27 09:01:00,30.5,25.0,30.00,NNW,338,7.0,-999.0,79,-99.99,,,0.00,weatherlink.com 1.10,2013-11-27 14:01:00,
2013-11-27 09:16:00,30.6,25.0,30.01,North,360,2.0,-999.0,79,-99.99,,,0.00,weatherlink.com 1.10,2013-11-27 14:16:00,
2013-11-27 09:31:00,30.7,24.0,30.02,NW,318,9.0,-999.0,77,-99.99,,,0.00,weatherlink.com 1.10,2013-11-27 14:31:00,
2013-11-27 09:46:00,31.0,24.0,30.01,NNE,24,3.0,-999.0,76,-99.99,,,0.00,weatherlink.com 1.10,2013-11-27 14:46:00,
2013-11-27 10:01:00,31.1,24.0,30.02,NNW,344,1.0,-999.0,75,-99.99,,,0.00,weatherlink.com 1.10,2013-11-27 15:01:00,
2013-11-27 10:16:00,31.4,25.0,30.02,NNW,336,4.0,-999.0,77,-99.99,,,0.00,weatherlink.com 1.10,2013-11-27 15:16:00,
2013-11-27 10:32:00,31.4,24.0,30.02,North,351,4.0,-999.0,75,-99.99,,,0.00,weatherlink.com 1.10,2013-11-27 15:32:00,
2013-11-27 10:47:00,31.5,25.0,30.02,NW,313,8.0,-999.0,76,-99.99,,,0.00,weatherlink.com 1.10,2013-11-27 15:47:00,
2013-11-27 11:02:00,31.4,25.0,30.02,NW,321,4.0,-999.0,77,-99.99,,,0.00,weatherlink.com 1.10,2013-11-27 16:02:00,
2013-11-27 11:17:00,31.6,25.0,30.02,North,355,5.0,-999.0,76,-99.99,,,0.00,weatherlink.com 1.10,2013-11-27 16:17:00,
2013-11-27 11:32:00,31.3,26.0,30.01,NW,314,5.0,-999.0,80,-99.99,,,0.00,weatherlink.com 1.10,2013-11-27 16:32:00,
2013-11-27 11:47:00,30.1,27.0,30.02,NW,315,7.0,-999.0,87,-99.99,,,0.00,weatherlink.com 1.10,2013-11-27 16:47:00,
2013-11-27 12:02:00,30.8,26.0,30.01,NNE,28,4.0,-999.0,83,-99.99,,,0.00,weatherlink.com 1.10,2013-11-27 17:02:00,
2013-11-27 12:17:00,31.2,25.0,30.01,NW,324,8.0,-999.0,77,-99.99,,,0.00,weatherlink.com 1.10,2013-11-27 17:17:00,
2013-11-27 12:32:00,31.1,25.0,30.02,NNW,329,5.0,-999.0,77,-99.99,,,0.00,weatherlink.com 1.10,2013-11-27 17:32:00,
2013-11-27 12:47:00,31.3,24.0,30.02,NW,319,4.0,-999.0,75,-99.99,,,0.00,weatherlink.com 1.10,2013-11-27 17:47:00,
2013-11-27 13:17:00,31.6,22.0,30.03,NW,324,5.0,-999.0,68,-99.99,,,0.00,weatherlink.com 1.10,2013-11-27 18:17:00,
2013-11-27 13:32:00,31.2,22.0,30.04,NW,323,6.0,-999.0,70,-99.99,,,0.00,weatherlink.com 1.10,2013-11-27 18:32:00,
2013-11-27 13:47:00,31.1,23.0,30.04,North,5,9.0,-999.0,72,-99.99,,,0.00,weatherlink.com 1.10,2013-11-27 18:47:00,
2013-11-27 14:02:00,30.9,23.0,30.04,NW,317,6.0,-999.0,73,-99.99,,,0.00,weatherlink.com 1.10,2013-11-27 19:02:00,
2013-11-27 14:17:00,30.8,23.0,30.05,NNW,331,7.0,-999.0,72,-99.99,,,0.00,weatherlink.com 1.10,2013-11-27 19:17:00,
2013-11-27 14:32:00,31.0,20.0,30.07,NNW,329,6.0,-999.0,65,-99.99,,,0.00,weatherlink.com 1.10,2013-11-27 19:32:00,
2013-11-27 14:47:00,30.5,21.0,30.08,NNW,335,10.0,-999.0,68,-99.99,,,0.00,weatherlink.com 1.10,2013-11-27 19:47:00,
2013-11-27 15:02:00,30.5,21.0,30.08,North,351,9.0,-999.0,69,-99.99,,,0.00,weatherlink.com 1.10,2013-11-27 20:02:00,
2013-11-27 15:16:00,30.6,22.0,30.09,NW,324,6.0,-999.0,70,-99.99,,,0.00,weatherlink.com 1.10,2013-11-27 20:16:00,
2013-11-27 15:32:00,30.7,22.0,30.10,NNW,336,8.0,-999.0,71,-99.99,,,0.00,weatherlink.com 1.10,2013-11-27 20:32:00,
2013-11-27 15:46:00,30.5,22.0,30.11,NW,305,4.0,-999.0,71,-99.99,,,0.00,weatherlink.com 1.10,2013-11-27 20:46:00,
2013-11-27 16:01:00,30.5,22.0,30.12,NW,317,9.0,-999.0,71,-99.99,,,0.00,weatherlink.com 1.10,2013-11-27 21:01:00,
2013-11-27 16:16:00,30.3,22.0,30.13,NW,307,13.0,-999.0,71,-99.99,,,0.00,weatherlink.com 1.10,2013-11-27 21:16:00,
2013-11-27 16:31:00,30.1,23.0,30.14,WNW,302,8.0,-999.0,76,-99.99,,,0.00,weatherlink.com 1.10,2013-11-27 21:31:00,
2013-11-27 16:46:00,29.9,24.0,30.15,NW,316,6.0,-999.0,77,-99.99,,,0.00,weatherlink.com 1.10,2013-11-27 21:46:00,
2013-11-27 17:01:00,29.8,23.0,30.15,NW,304,5.0,-999.0,77,-99.99,,,0.00,weatherlink.com 1.10,2013-11-27 22:01:00,
2013-11-27 17:16:00,29.9,24.0,30.17,WNW,291,9.0,-999.0,77,-99.99,,,0.00,weatherlink.com 1.10,2013-11-27 22:16:00,
2013-11-27 17:31:00,29.8,23.0,30.18,WNW,301,11.0,-999.0,75,-99.99,,,0.00,weatherlink.com 1.10,2013-11-27 22:31:00,
2013-11-27 17:47:00,29.5,22.0,30.19,NW,325,8.0,-999.0,74,-99.99,,,0.00,weatherlink.com 1.10,2013-11-27 22:47:00,
2013-11-27 18:02:00,29.4,22.0,30.20,WNW,302,10.0,-999.0,73,-99.99,,,0.00,weatherlink.com 1.10,2013-11-27 23:02:00,
2013-11-27 18:17:00,29.0,22.0,30.21,NW,312,4.0,-999.0,75,-99.99,,,0.00,weatherlink.com 1.10,2013-11-27 23:17:00,
2013-11-27 18:32:00,28.2,22.0,30.21,NW,317,9.0,-999.0,78,-99.99,,,0.00,weatherlink.com 1.10,2013-11-27 23:32:00,
2013-11-27 18:47:00,27.8,22.0,30.22,NW,311,3.0,-999.0,79,-99.99,,,0.00,weatherlink.com 1.10,2013-11-27 23:47:00,
2013-11-27 19:02:00,27.5,22.0,30.23,NW,313,4.0,-999.0,79,-99.99,,,0.00,weatherlink.com 1.10,2013-11-28 00:02:00,
2013-11-27 19:17:00,27.3,22.0,30.24,NW,306,6.0,-999.0,79,-99.99,,,0.00,weatherlink.com 1.10,2013-11-28 00:17:00,
2013-11-27 19:32:00,27.1,21.0,30.25,NW,307,3.0,-999.0,78,-99.99,,,0.00,weatherlink.com 1.10,2013-11-28 00:32:00,
2013-11-27 19:47:00,26.7,21.0,30.25,NW,316,4.0,-999.0,78,-99.99,,,0.00,weatherlink.com 1.10,2013-11-28 00:47:00,
2013-11-27 20:02:00,26.6,21.0,30.25,NW,309,3.0,-999.0,78,-99.99,,,0.00,weatherlink.com 1.10,2013-11-28 01:02:00,
2013-11-27 20:17:00,26.1,20.0,30.25,NW,309,2.0,-999.0,79,-99.99,,,0.00,weatherlink.com 1.10,2013-11-28 01:17:00,
2013-11-27 20:32:00,25.7,20.0,30.26,NW,308,5.0,-999.0,80,-99.99,,,0.00,weatherlink.com 1.10,2013-11-28 01:32:00,
2013-11-27 20:47:00,25.4,20.0,30.26,WNW,302,0.0,-999.0,81,-99.99,,,0.00,weatherlink.com 1.10,2013-11-28 01:47:00,
2013-11-27 21:02:00,24.9,20.0,30.27,WNW,302,0.0,-999.0,83,-99.99,,,0.00,weatherlink.com 1.10,2013-11-28 02:02:00,
2013-11-27 21:17:00,24.7,20.0,30.27,WNW,302,0.0,-999.0,83,-99.99,,,0.00,weatherlink.com 1.10,2013-11-28 02:17:00,
2013-11-27 21:32:00,24.5,20.0,30.27,WNW,302,2.0,-999.0,83,-99.99,,,0.00,weatherlink.com 1.10,2013-11-28 02:32:00,
2013-11-27 21:47:00,24.5,20.0,30.28,WNW,302,1.0,-999.0,82,-99.99,,,0.00,weatherlink.com 1.10,2013-11-28 02:47:00,
2013-11-27 22:02:00,24.1,19.0,30.28,WNW,302,0.0,-999.0,82,-99.99,,,0.00,weatherlink.com 1.10,2013-11-28 03:02:00,
2013-11-27 22:17:00,23.5,19.0,30.29,WNW,302,0.0,-999.0,83,-99.99,,,0.00,weatherlink.com 1.10,2013-11-28 03:17:00,
2013-11-27 22:32:00,22.5,18.0,30.29,WNW,302,0.0,-999.0,83,-99.99,,,0.00,weatherlink.com 1.10,2013-11-28 03:32:00,
2013-11-27 22:48:00,21.8,18.0,30.30,WNW,302,0.0,-999.0,85,-99.99,,,0.00,weatherlink.com 1.10,2013-11-28 03:48:00,
2013-11-27 23:03:00,21.3,18.0,30.31,WNW,302,0.0,-999.0,86,-99.99,,,0.00,weatherlink.com 1.10,2013-11-28 04:03:00,
2013-11-27 23:18:00,20.7,17.0,30.31,WNW,302,0.0,-999.0,87,-99.99,,,0.00,weatherlink.com 1.10,2013-11-28 04:18:00,
2013-11-27 23:33:00,20.2,17.0,30.32,WNW,302,0.0,-999.0,87,-99.99,,,0.00,weatherlink.com 1.10,2013-11-28 04:33:00,
2013-11-27 23:48:00,19.9,17.0,30.32,WNW,302,0.0,-999.0,88,-99.99,,,0.00,weatherlink.com 1.10,2013-11-28 04:48:00,